Date String (YYYY-MM-DD hh:mm:ss) UTC,Instrument flags,absolute air pressure of the measurement (hPa),sample flow rate (lpm),inlet stack bypass flow (lpm),air temperature of the measurement (°C),ambient temperature measured by the external sensor (°C),aerosol sample conditioner tube jacket temperature (°C),OPC LED temperature (°C),internal box temperature (°C),relative humidity of the measurement (%),span deviation,mass concentration of particles derived from Lorenz-Mie calculation of OPC scattering (μg/m³),mass concentration of particles derived from Lorenz-Mie calculation of OPC scattering (μg/m³),mass concentration of particles derived from Lorenz-Mie calculation of OPC scattering (μg/m³)
DateTimeUTC,F1_M11,P_M11,Q1_M11,Q2_M11,T1_M11,T2_M11,T3_M11,T4_M11,T5_M11,U1_M11,ZSPAN_M11,X0_M11,X2_M11,X1_M11
2024-01-14 02:00:00,SystemResetWarning,0825.1,4.99,000.00,019.1,018.4,000.0,027.4,020.0,3.3,0000.0,0005.56,0003.55,0003.27
2024-01-14 02:01:00,SystemResetWarning,0825.2,4.99,000.00,019.0,018.3,000.0,027.4,020.0,3.3,0000.0,0005.54,0003.55,0003.27
2024-01-14 02:02:00,SystemResetWarning,0825.3,5.01,000.00,019.0,018.2,000.0,027.4,020.0,3.3,0000.0,0005.55,0003.55,0003.27
2024-01-14 02:03:00,SystemResetWarning,0825.3,5.00,000.00,019.0,018.1,000.0,027.4,020.0,3.3,0000.0,0005.53,0003.56,0003.26
2024-01-14 02:04:00,SystemResetWarning,0825.2,5.01,000.00,019.0,018.0,000.0,027.4,020.1,3.3,0000.0,0005.43,0003.55,0003.26
2024-01-14 02:05:00,SystemResetWarning,0825.1,5.00,000.00,019.0,018.4,000.0,027.4,020.5,3.3,0000.0,0005.38,0003.54,0003.25
2024-01-14 02:06:00,SystemResetWarning,0825.2,5.00,000.00,019.2,019.0,000.0,027.4,020.9,3.3,0000.0,0005.38,0003.53,0003.25
2024-01-14 02:07:00,SystemResetWarning,0825.2,4.99,000.00,019.2,019.1,000.0,027.4,020.7,3.3,0000.0,0005.66,0003.55,0003.26
2024-01-14 02:08:00,SystemResetWarning,0825.1,4.99,000.00,019.2,018.9,000.0,027.4,020.4,3.3,0000.0,0006.92,0003.58,0003.27
2024-01-14 02:09:00,SystemResetWarning,0825.2,4.99,000.00,019.1,018.7,000.0,027.4,020.2,3.3,0000.0,0006.68,0003.58,0003.28
2024-01-14 02:10:00,SystemResetWarning,0825.3,5.00,000.00,019.1,018.6,000.0,027.4,020.0,3.3,0000.0,0007.26,0003.60,0003.30
2024-01-14 02:11:00,SystemResetWarning,0825.3,5.00,000.00,019.0,018.4,000.0,027.4,020.0,3.3,0000.0,0008.05,0003.61,0003.30
2024-01-14 02:12:00,SystemResetWarning,0825.2,5.00,000.00,019.0,018.3,000.0,027.4,020.0,3.3,0000.0,0008.09,0003.63,0003.31
2024-01-14 02:13:00,SystemResetWarning,0825.2,5.00,000.00,019.0,018.2,000.0,027.4,020.0,3.3,0000.0,0008.08,0003.63,0003.32
2024-01-14 02:14:00,SystemResetWarning,0825.1,5.01,000.00,019.0,018.2,000.0,027.4,020.2,3.3,0000.0,0008.08,0003.62,0003.33
2024-01-14 02:15:00,SystemResetWarning,0825.2,5.01,000.00,019.1,018.7,000.0,027.4,020.7,3.3,0000.0,0008.09,0003.65,0003.35
2024-01-14 02:16:00,SystemResetWarning,0825.3,5.00,000.00,019.2,019.2,000.0,027.4,020.9,3.3,0000.0,0008.07,0003.65,0003.37
2024-01-14 02:17:00,SystemResetWarning,0825.2,4.99,000.00,019.2,019.1,000.0,027.4,020.5,3.3,0000.0,0008.17,0003.71,0003.40
2024-01-14 02:18:00,SystemResetWarning,0825.1,5.00,000.00,019.2,018.9,000.0,027.4,020.3,3.3,0000.0,0008.08,0003.75,0003.42
2024-01-14 02:19:00,SystemResetWarning,0825.1,5.01,000.00,019.1,018.7,000.0,027.4,020.1,3.3,0000.0,0007.48,0003.76,0003.45
2024-01-14 02:20:00,SystemResetWarning,0825.2,5.00,000.00,019.1,018.5,000.0,027.4,020.0,3.4,0000.0,0007.57,0003.81,0003.47
2024-01-14 02:21:00,SystemResetWarning,0825.2,5.00,000.00,019.0,018.3,000.0,027.4,020.0,3.4,0000.0,0007.35,0003.84,0003.51
2024-01-14 02:22:00,SystemResetWarning,0825.2,5.00,000.00,019.0,018.1,000.0,027.4,020.0,3.4,0000.0,0006.74,0003.87,0003.57
2024-01-14 02:23:00,SystemResetWarning,0825.2,4.99,000.00,019.0,018.0,000.0,027.4,020.0,3.4,0000.0,0007.32,0003.93,0003.64
2024-01-14 02:24:00,SystemResetWarning,0825.1,5.01,000.00,019.0,017.9,000.0,027.4,020.0,3.4,0000.0,0007.35,0003.97,0003.68
2024-01-14 02:25:00,SystemResetWarning,0825.2,5.01,000.00,019.0,018.2,000.0,027.4,020.4,3.4,0000.0,0007.47,0004.03,0003.73
2024-01-14 02:26:00,SystemResetWarning,0825.2,5.01,000.00,019.1,018.8,000.0,027.4,020.9,3.4,0000.0,0007.55,0004.10,0003.79
2024-01-14 02:27:00,SystemResetWarning,0825.2,4.99,000.00,019.2,019.1,000.0,027.4,020.8,3.4,0000.0,0007.74,0004.15,0003.84
2024-01-14 02:28:00,SystemResetWarning,0825.1,4.99,000.00,019.2,019.0,000.0,027.4,020.5,3.4,0000.0,0007.80,0004.20,0003.90
2024-01-14 02:29:00,SystemResetWarning,0825.0,5.00,000.00,019.1,018.8,000.0,027.4,020.3,3.4,0000.0,0007.83,0004.24,0003.95
2024-01-14 02:30:00,SystemResetWarning,0825.0,5.01,000.00,019.1,018.6,000.0,027.4,020.1,3.4,0000.0,0007.97,0004.33,0004.03
2024-01-14 02:31:00,SystemResetWarning,0825.0,5.00,000.00,019.0,018.4,000.0,027.4,020.0,3.4,0000.0,0008.12,0004.42,0004.11
2024-01-14 02:32:00,SystemResetWarning,0825.0,4.99,000.00,019.0,018.3,000.0,027.4,020.0,3.4,0000.0,0008.20,0004.48,0004.17
2024-01-14 02:33:00,SystemResetWarning,0825.2,4.99,000.00,019.0,018.1,000.0,027.4,020.0,3.4,0000.0,0008.22,0004.49,0004.18
2024-01-14 02:34:00,SystemResetWarning,0825.2,5.00,000.00,019.0,018.0,000.0,027.4,020.0,3.4,0000.0,0007.51,0004.50,0004.17
2024-01-14 02:35:00,SystemResetWarning,0825.0,5.01,000.00,019.0,018.2,000.0,027.4,020.4,3.4,0000.0,0007.53,0004.49,0004.16
2024-01-14 02:36:00,SystemResetWarning,0825.0,5.00,000.00,019.1,018.8,000.0,027.4,020.8,3.4,0000.0,0007.56,0004.48,0004.14
2024-01-14 02:37:00,SystemResetWarning,0825.1,4.98,000.00,019.2,019.1,000.0,027.4,020.8,3.4,0000.0,0007.44,0004.41,0004.09
2024-01-14 02:38:00,SystemResetWarning,0825.2,4.99,000.00,019.2,019.0,000.0,027.4,020.5,3.4,0000.0,0007.29,0004.38,0004.05
2024-01-14 02:39:00,SystemResetWarning,0825.2,5.00,000.00,019.1,018.8,000.0,027.4,020.3,3.4,0000.0,0007.36,0004.35,0004.00
2024-01-14 02:40:00,SystemResetWarning,0825.1,5.01,000.00,019.1,018.6,000.0,027.4,020.1,3.4,0000.0,0007.47,0004.30,0003.95
2024-01-14 02:41:00,SystemResetWarning,0825.1,5.01,000.00,019.0,018.4,000.0,027.4,020.0,3.4,0000.0,0007.31,0004.21,0003.86
2024-01-14 02:42:00,SystemResetWarning,0825.2,5.00,000.00,019.0,018.3,000.0,027.4,020.0,3.4,0000.0,0007.09,0004.12,0003.77
2024-01-14 02:43:00,SystemResetWarning,0825.1,5.00,000.00,019.0,018.2,000.0,027.4,020.0,3.4,0000.0,0006.92,0004.02,0003.70
2024-01-14 02:44:00,SystemResetWarning,0825.1,4.99,000.00,019.0,018.1,000.0,027.4,020.0,3.4,0000.0,0007.36,0003.97,0003.65
2024-01-14 02:45:00,SystemResetWarning,0825.1,4.99,000.00,019.0,018.1,000.0,027.4,020.3,3.4,0000.0,0007.70,0003.93,0003.62
2024-01-14 02:46:00,SystemResetWarning,0825.1,5.01,000.00,019.1,018.7,000.0,027.4,020.8,3.5,0000.0,0007.66,0003.91,0003.59
2024-01-14 02:47:00,SystemResetWarning,0825.1,5.00,000.00,019.2,019.2,000.0,027.4,020.9,3.4,0000.0,0007.53,0003.87,0003.57
2024-01-14 02:48:00,SystemResetWarning,0825.1,4.99,000.00,019.2,019.0,000.0,027.4,020.5,3.4,0000.0,0007.57,0003.87,0003.56
2024-01-14 02:49:00,SystemResetWarning,0825.1,4.99,000.00,019.1,018.8,000.0,027.4,020.2,3.5,0000.0,0007.56,0003.86,0003.55
2024-01-14 02:50:00,SystemResetWarning,0825.1,5.00,000.00,019.0,018.5,000.0,027.4,020.0,3.5,0000.0,0007.44,0003.83,0003.54
2024-01-14 02:51:00,SystemResetWarning,0825.2,5.00,000.00,019.0,018.3,000.0,027.4,020.0,3.5,0000.0,0007.30,0003.84,0003.53
2024-01-14 02:52:00,SystemResetWarning,0825.2,5.00,000.00,019.0,018.1,000.0,027.4,020.0,3.5,0000.0,0007.21,0003.81,0003.51
2024-01-14 02:53:00,SystemResetWarning,0825.2,5.00,000.00,018.9,018.0,000.0,027.4,020.0,3.5,0000.0,0007.14,0003.79,0003.50
2024-01-14 02:54:00,SystemResetWarning,0825.1,5.00,000.00,018.9,017.9,000.0,027.4,020.1,3.5,0000.0,0007.13,0003.81,0003.50
2024-01-14 02:55:00,SystemResetWarning,0825.0,5.01,000.00,019.0,018.2,000.0,027.4,020.5,3.5,0000.0,0006.50,0003.82,0003.50
2024-01-14 02:56:00,SystemResetWarning,0825.2,5.01,000.00,019.1,018.9,000.0,027.4,020.9,3.5,0000.0,0005.77,0003.79,0003.48
2024-01-14 02:57:00,SystemResetWarning,0825.2,4.99,000.00,019.2,019.1,000.0,027.4,020.7,3.5,0000.0,0005.95,0003.79,0003.47
2024-01-14 02:58:00,SystemResetWarning,0825.2,4.98,000.00,019.1,018.9,000.0,027.4,020.4,3.5,0000.0,0006.64,0003.80,0003.47
2024-01-14 02:59:00,SystemResetWarning,0825.2,5.01,000.00,019.1,018.6,000.0,027.4,020.1,3.5,0000.0,0006.51,0003.79,0003.46
